Total_Precipitation_Accumulation
0.01 0.03 0.06 0.08 0.08 0.06 0.03 0.02 0.03 0.04 0.06 0.04 0.02 0.01 0.01 0.00 0.00 0.00 0.00 0.00 0.00 0.00 0.01 0.01 0.01 0.01 0.02 0.02 0.03 0.03 0.04 0.04 0.05 0.05 0.06 0.06 0.06 0.06 0.06 0.07 0.08 0.12 0.15 0.15
0.01 0.03 0.04 0.06 0.10 0.06 0.03 0.02 0.02 0.02 0.03 0.02 0.02 0.02 0.02 0.02 0.02 0.02 0.02 0.03 0.04 0.05 0.05 0.04 0.04 0.04 0.04 0.04 0.04 0.05 0.05 0.05 0.04 0.05 0.05 0.06 0.06 0.06 0.06 0.08 0.12 0.17 0.20 0.20
0.01 0.02 0.03 0.08 0.07 0.05 0.06 0.05 0.05 0.05 0.06 0.06 0.07 0.07 0.10 0.12 0.13 0.13 0.13 0.10 0.07 0.05 0.03 0.02 0.01 0.01 0.01 0.01 0.01 0.02 0.03 0.03 0.04 0.05 0.05 0.06 0.06 0.07 0.09 0.12 0.16 0.21 0.25 0.27
0.02 0.02 0.06 0.08 0.07 0.05 0.06 0.07 0.08 0.10 0.13 0.15 0.18 0.21 0.27 0.29 0.23 0.13 0.07 0.03 0.01 0.01 0.00 0.00 0.00 0.00 0.01 0.01 0.01 0.02 0.02 0.03 0.04 0.06 0.07 0.08 0.11 0.13 0.17 0.21 0.23 0.27 0.30 0.33
0.03 0.03 0.05 0.05 0.09 0.10 0.09 0.10 0.13 0.19 0.23 0.27 0.25 0.19 0.14 0.10 0.05 0.03 0.02 0.02 0.01 0.01 0.00 0.00 0.01 0.01 0.01 0.01 0.02 0.02 0.04 0.07 0.09 0.11 0.13 0.16 0.20 0.24 0.29 0.31 0.31 0.32 0.34 0.39
0.07 0.06 0.07 0.09 0.13 0.14 0.14 0.21 0.23 0.23 0.20 0.15 0.12 0.12 0.09 0.06 0.04 0.03 0.02 0.01 0.01 0.00 0.00 0.01 0.02 0.02 0.02 0.02 0.03 0.04 0.06 0.08 0.11 0.17 0.23 0.26 0.30 0.35 0.38 0.41 0.40 0.39 0.37 0.42
0.11 0.11 0.10 0.14 0.12 0.10 0.16 0.22 0.22 0.23 0.20 0.18 0.16 0.16 0.14 0.08 0.04 0.03 0.02 0.02 0.01 0.01 0.01 0.02 0.03 0.03 0.05 0.06 0.07 0.07 0.08 0.10 0.12 0.18 0.28 0.32 0.37 0.42 0.46 0.48 0.49 0.50 0.47 0.47
0.19 0.23 0.19 0.20 0.17 0.18 0.22 0.20 0.20 0.18 0.16 0.14 0.11 0.07 0.06 0.05 0.04 0.03 0.02 0.02 0.02 0.01 0.01 0.02 0.04 0.07 0.09 0.11 0.10 0.11 0.13 0.15 0.16 0.22 0.30 0.33 0.42 0.47 0.52 0.57 0.60 0.60 0.62 0.60
0.21 0.23 0.18 0.19 0.19 0.18 0.18 0.17 0.15 0.13 0.09 0.09 0.10 0.10 0.06 0.06 0.06 0.05 0.04 0.03 0.02 0.02 0.03 0.03 0.06 0.10 0.14 0.14 0.14 0.17 0.18 0.18 0.22 0.26 0.38 0.52 0.57 0.54 0.58 0.64 0.64 0.64 0.69 0.72
0.17 0.21 0.22 0.21 0.19 0.14 0.13 0.10 0.06 0.06 0.07 0.06 0.07 0.07 0.08 0.08 0.07 0.05 0.03 0.03 0.03 0.03 0.04 0.06 0.07 0.10 0.15 0.17 0.21 0.25 0.25 0.23 0.25 0.31 0.44 0.68 0.82 0.75 0.69 0.69 0.69 0.70 0.68 0.71
0.14 0.18 0.17 0.18 0.12 0.08 0.06 0.03 0.02 0.02 0.02 0.02 0.02 0.02 0.03 0.04 0.02 0.02 0.02 0.03 0.04 0.06 0.08 0.08 0.09 0.12 0.17 0.23 0.30 0.33 0.31 0.28 0.28 0.34 0.49 0.70 0.87 0.87 0.73 0.71 0.69 0.70 0.69 0.69
0.09 0.12 0.13 0.14 0.09 0.05 0.04 0.03 0.02 0.01 0.01 0.01 0.01 0.01 0.01 0.01 0.02 0.02 0.03 0.05 0.07 0.09 0.11 0.13 0.16 0.20 0.23 0.29 0.36 0.41 0.39 0.36 0.36 0.40 0.50 0.71 0.93 1.00 0.79 0.63 0.60 0.59 0.53 0.51
0.09 0.12 0.15 0.13 0.08 0.06 0.05 0.03 0.02 0.01 0.01 0.01 0.01 0.01 0.01 0.02 0.02 0.03 0.05 0.08 0.12 0.15 0.17 0.21 0.23 0.23 0.24 0.30 0.38 0.44 0.45 0.42 0.39 0.41 0.45 0.58 0.82 1.07 1.11 0.85 0.64 0.54 0.42 0.33
0.10 0.11 0.12 0.10 0.07 0.04 0.03 0.01 0.01 0.00 0.00 0.00 0.00 0.01 0.01 0.02 0.03 0.05 0.10 0.16 0.22 0.26 0.27 0.28 0.27 0.24 0.26 0.33 0.38 0.40 0.41 0.38 0.36 0.36 0.37 0.46 0.69 0.97 1.17 1.15 0.98 0.72 0.44 0.26
0.10 0.10 0.09 0.05 0.03 0.02 0.01 0.01 0.00 0.00 0.00 0.01 0.01 0.01 0.01 0.03 0.06 0.11 0.17 0.28 0.37 0.38 0.34 0.32 0.30 0.28 0.30 0.36 0.37 0.36 0.37 0.33 0.30 0.31 0.32 0.37 0.56 0.83 1.04 1.13 1.08 0.96 0.68 0.37
0.07 0.07 0.05 0.03 0.02 0.02 0.01 0.01 0.01 0.01 0.01 0.01 0.02 0.02 0.03 0.06 0.10 0.15 0.23 0.38 0.55 0.56 0.47 0.40 0.35 0.33 0.34 0.37 0.36 0.32 0.31 0.25 0.20 0.22 0.25 0.30 0.42 0.66 0.92 1.07 1.03 0.98 0.83 0.48
0.06 0.05 0.04 0.03 0.03 0.02 0.02 0.01 0.01 0.02 0.02 0.03 0.04 0.05 0.06 0.11 0.17 0.24 0.35 0.45 0.52 0.50 0.46 0.44 0.39 0.35 0.35 0.36 0.35 0.30 0.27 0.22 0.15 0.15 0.24 0.30 0.37 0.55 0.81 0.99 0.95 0.88 0.76 0.45
0.05 0.04 0.03 0.03 0.03 0.03 0.02 0.02 0.02 0.02 0.03 0.05 0.07 0.07 0.10 0.18 0.30 0.46 0.58 0.61 0.56 0.43 0.38 0.39 0.36 0.32 0.30 0.28 0.26 0.25 0.23 0.23 0.21 0.22 0.28 0.32 0.36 0.54 0.76 0.90 0.87 0.82 0.72 0.49
0.04 0.04 0.04 0.03 0.03 0.02 0.02 0.02 0.02 0.02 0.04 0.08 0.10 0.09 0.11 0.18 0.32 0.51 0.62 0.74 0.78 0.63 0.44 0.32 0.29 0.25 0.23 0.19 0.20 0.20 0.20 0.22 0.22 0.24 0.29 0.28 0.38 0.56 0.71 0.78 0.76 0.72 0.61 0.47
0.03 0.03 0.03 0.02 0.02 0.02 0.01 0.01 0.01 0.02 0.05 0.10 0.10 0.07 0.09 0.16 0.31 0.51 0.64 0.74 0.80 0.73 0.53 0.36 0.25 0.19 0.15 0.12 0.13 0.17 0.20 0.24 0.26 0.28 0.30 0.38 0.47 0.60 0.65 0.64 0.61 0.58 0.53 0.51
0.02 0.01 0.01 0.01 0.01 0.01 0.00 0.00 0.01 0.03 0.07 0.09 0.08 0.06 0.10 0.16 0.28 0.48 0.77 0.94 0.82 0.68 0.53 0.40 0.28 0.18 0.13 0.12 0.11 0.14 0.18 0.21 0.27 0.33 0.37 0.43 0.52 0.61 0.62 0.58 0.51 0.48 0.47 0.48
0.01 0.00 0.00 0.00 0.00 0.00 0.00 0.00 0.01 0.03 0.05 0.06 0.06 0.07 0.11 0.18 0.29 0.40 0.59 0.88 0.95 0.86 0.61 0.42 0.30 0.19 0.14 0.12 0.12 0.14 0.16 0.19 0.24 0.30 0.33 0.37 0.46 0.54 0.52 0.46 0.40 0.38 0.40 0.45
0.00 0.00 0.00 0.00 0.00 0.00 0.00 0.00 0.00 0.02 0.03 0.04 0.05 0.07 0.12 0.20 0.33 0.56 0.68 0.68 0.78 0.88 0.66 0.45 0.36 0.25 0.16 0.13 0.15 0.17 0.18 0.22 0.29 0.31 0.28 0.31 0.34 0.39 0.41 0.37 0.37 0.37 0.40 0.42
0.00 0.00 0.00 0.00 0.00 0.00 0.00 0.00 0.00 0.01 0.01 0.01 0.02 0.03 0.08 0.17 0.25 0.40 0.59 0.69 0.72 0.78 0.61 0.45 0.35 0.26 0.20 0.18 0.22 0.26 0.32 0.38 0.39 0.34 0.28 0.27 0.29 0.31 0.36 0.36 0.33 0.35 0.38 0.39
0.01 0.01 0.01 0.01 0.01 0.01 0.01 0.01 0.01 0.01 0.01 0.01 0.02 0.03 0.06 0.12 0.25 0.39 0.53 0.63 0.75 0.80 0.68 0.53 0.41 0.35 0.30 0.31 0.35 0.44 0.50 0.44 0.36 0.31 0.27 0.26 0.28 0.31 0.33 0.36 0.37 0.34 0.33 0.31
0.01 0.01 0.01 0.01 0.01 0.02 0.01 0.02 0.02 0.02 0.03 0.03 0.04 0.06 0.09 0.14 0.21 0.33 0.46 0.53 0.62 0.72 0.67 0.51 0.35 0.32 0.33 0.38 0.42 0.46 0.44 0.39 0.33 0.31 0.30 0.30 0.32 0.34 0.34 0.36 0.37 0.32 0.28 0.25
0.02 0.02 0.02 0.02 0.02 0.03 0.03 0.04 0.05 0.06 0.07 0.10 0.14 0.17 0.20 0.22 0.26 0.33 0.40 0.45 0.49 0.51 0.47 0.38 0.28 0.27 0.28 0.28 0.32 0.35 0.36 0.37 0.36 0.35 0.35 0.35 0.35 0.34 0.31 0.29 0.28 0.27 0.24 0.21